This is the latest recevied weather packets stored in our database for station/object EA1IDU-11. If no packets are shown the sender has not sent any weather packets the latest 10 day(s).
| Time | Temp. | Humidity | Pressure | Rain* | Wind** | Luminosity | Snow |
|---|---|---|---|---|---|---|---|
| 1777981391 | 18.33° C | 53% | 1021.7 hPa | - | - | - | - |
| 1777980490 | 17.78° C | 54% | 1021.8 hPa | - | - | - | - |
| 1777979590 | 17.22° C | 56% | 1021.9 hPa | - | - | - | - |
| 1777978690 | 17.78° C | 57% | 1022 hPa | - | - | - | - |
| 1777977790 | 17.78° C | 59% | 1022 hPa | - | - | - | - |
| 1777976890 | 18.33° C | 61% | 1022.1 hPa | - | - | - | - |
| 1777975990 | 18.89° C | 61% | 1022.1 hPa | - | - | - | - |
| 1777975090 | 18.89° C | 61% | 1022 hPa | - | - | - | - |
| 1777974189 | 18.33° C | 63% | 1022.1 hPa | - | - | - | - |
| 1777973289 | 18.33° C | 64% | 1022.1 hPa | - | - | - | - |
| 1777972389 | 17.78° C | 64% | 1022.1 hPa | - | - | - | - |
| 1777971489 | 16.67° C | 64% | 1022.1 hPa | - | - | - | - |
| 1777970589 | 15.56° C | 64% | 1022.1 hPa | - | - | - | - |
| 1777969689 | 15.56° C | 64% | 1022.2 hPa | - | - | - | - |
| 1777968789 | 15° C | 64% | 1022.3 hPa | - | - | - | - |
| 1777967888 | 13.89° C | 64% | 1022.4 hPa | - | - | - | - |
| 1777966988 | 13.33° C | 64% | 1022.4 hPa | - | - | - | - |
| 1777966088 | 12.78° C | 64% | 1022.4 hPa | - | - | - | - |
| 1777965188 | 12.78° C | 64% | 1022.3 hPa | - | - | - | - |
| 1777964288 | 13.33° C | 63% | 1022.3 hPa | - | - | - | - |
| 1777963388 | 13.33° C | 64% | 1022.1 hPa | - | - | - | - |
| 1777962488 | 13.33° C | 63% | 1022 hPa | - | - | - | - |
| 1777961588 | 11.11° C | 63% | 1021.9 hPa | - | - | - | - |
| 1777960687 | 8.89° C | 63% | 1021.9 hPa | - | - | - | - |
| 1777959787 | 8.33° C | 63% | 1022.1 hPa | - | - | - | - |
* Rain since midnight (hover to see other rain measurements)
** Current wind speed in m/s (hover to see current wind gust speed)